[[{"header":{"parameterUnit":"m.s-1","parameterCategory":1,"la1":30.2991,"la2":30.254,"lo1":-89.0895,"lo2":-89.0444,"dy":0.0017,"dx":0.0017,"nx":28,"ny":28,"refTime":"2024-10-09T03:00:00:Z","depth":0,"parameterNumber":2,"parameterNumberName":"U-component_of_WINDS"},"data":[0,0,0,0,0,0,0,0,0,0,0,0,0,0,0,0,0,0,0,0,0,0,0,0,0,0,0,0,0,0,0,0,0,0,0,0,0,0,0,0,0,0,0,0,0,0,0,0,0,0,0,0,0,0,0,0,0,0,-2.1062,-2.1062,0,-2.106,-2.106,-2.106,-2.1083,-2.1084,-2.1085,-2.1085,-2.1082,-2.1081,-2.1081,0,0,0,0,0,0,0,0,0,0,0,0,0,-2.1084,-2.1083,-2.1062,-2.1062,-2.1062,-2.106,-2.106,-2.106,-2.1083,-2.1084,-2.1085,-2.1086,-2.1082,-2.1081,-2.108,0,0,0,0,0,0,0,0,0,0,0,0,0,-2.1077,-2.1083,-2.1062,-2.1073,-2.1074,-2.106,-2.106,-2.106,-2.1083,-2.1084,-2.1085,-2.1086,-2.1082,-2.1081,-2.108,-2.1055,0,0,-2.1077,-2.1077,0,0,0,0,0,0,0,0,-2.1078,-2.1076,-2.1072,-2.1072,-2.1074,-2.1073,-2.1067,-2.1059,-2.1083,-2.108,-2.1085,-2.1086,-2.1078,-2.1077,-2.1075,-2.1055,-2.1055,-2.1077,-2.1077,-2.1076,-2.1076,0,0,0,0,0,0,0,-2.1078,-2.1077,-2.1061,-2.1072,-2.1073,-2.1078,-2.1078,-2.1065,-2.1074,-2.108,-2.1082,-2.1081,-2.1079,-2.1076,-2.1075,-2.1055,-2.1077,-2.1076,-2.1076,-2.1075,-2.1014,-2.1013,0,0,0,0,0,0,-2.1077,-2.1077,-2.1061,-2.1061,-2.1078,-2.1077,-2.1077,-2.1072,-2.1074,-2.1075,-2.108,-2.1082,-2.1077,-2.1076,-2.1075,-2.1046,-2.1076,-2.1075,-2.1075,-2.1015,-2.1014,-2.1013,0,0,0,0,0,0,-2.1077,-2.1076,-2.1061,-2.107,-2.1068,-2.1075,-2.107,-2.1072,-2.1069,-2.1074,-2.1076,-2.1076,-2.1078,-2.1077,-2.106,-2.1046,-2.1075,-2.1074,-2.1017,-2.1015,-2.1014,-2.0987,0,0,0,0,0,0,-2.1078,-2.1076,-2.1066,-2.1069,-2.1068,-2.1047,-2.1069,-2.1071,-2.1067,-2.107,-2.107,-2.1071,-2.1079,-2.1062,-2.1059,-2.1045,-2.1073,-2.1018,-2.1016,-2.1014,-2.0989,-2.0984,-2.098,0,0,0,0,0,-2.1079,-2.1058,-2.1066,-2.1064,-2.1056,-2.1046,-2.1045,-2.1054,-2.1066,-2.1057,-2.106,-2.1071,-2.1048,-2.106,-2.1057,-2.1042,-2.1019,-2.1016,-2.1014,-2.0991,-2.0985,-2.0981,0,0,0,0,0,0,-2.1052,-2.1059,-2.1067,-2.1047,-2.1046,-2.105,-2.1038,-2.1048,-2.1043,-2.1045,-2.1056,-2.1056,-2.1038,-2.1039,-2.1052,-2.1018,-2.1035,-2.1033,-2.1018,-2.1013,-2.1009,-2.1009,-2.1072,0,0,0,0,0,-2.1045,-2.1036,-2.1042,-2.1024,-2.1023,-2.1031,-2.1026,-2.1034,-2.1033,-2.1032,-2.1034,-2.1032,-2.1025,-2.1019,-2.1012,-2.0989,-2.099,-2.0978,-2.0974,-2.0971,-2.0968,-2.0956,-2.095,-2.1006,-2.1006,-2.1006,0,0,-2.1028,-2.103,-2.1024,-2.1019,-2.1018,-2.1009,-2.103,-2.1019,-2.1012,-2.103,-2.1015,-2.1016,-2.1015,-2.0995,-2.0987,-2.0995,-2.0953,-2.0968,-2.0965,-2.0964,-2.0953,-2.0947,-2.0943,-2.1004,-2.1004,-2.1005,0,0,-2.0992,-2.0993,-2.0978,-2.0978,-2.0978,-2.0984,-2.098,-2.0983,-2.0984,-2.097,-2.0983,-2.0975,-2.0961,-2.096,-2.0957,-2.0922,-2.0932,-2.092,-2.0898,-2.0886,-2.0881,-2.0878,-2.0865,-2.086,-2.0917,-2.0917,-2.0917,0,-2.0971,-2.0958,-2.0969,-2.0957,-2.0954,-2.0972,-2.0956,-2.0955,-2.0953,-2.095,-2.096,-2.0944,-2.0944,-2.0924,-2.0916,-2.0913,-2.0909,-2.0919,-2.0881,-2.0878,-2.0874,-2.0862,-2.0857,-2.0915,-2.0915,-2.0916,-2.0916,0,-2.0931,-2.0922,-2.091,-2.0908,-2.0904,-2.089,-2.0899,-2.0894,-2.0902,-2.0906,-2.089,-2.0892,-2.0885,-2.0881,-2.0889,-2.0863,-2.0868,-2.0879,-2.0897,-2.0867,-2.0856,-2.0851,-2.0913,-2.0914,-2.0914,-2.0914,0,0,-2.0878,-2.0883,-2.0878,-2.0878,-2.088,-2.0872,-2.086,-2.0854,-2.0849,-2.0847,-2.0836,-2.0825,-2.0836,-2.0833,-2.0841,-2.083,-2.0802,-2.0843,-2.0843,-2.0835,-2.0773,-2.0764,-2.0758,-2.0809,-2.0808,-2.0808,-2.0773,0,-2.0843,-2.0822,-2.0832,-2.081,-2.0801,-2.0818,-2.0807,-2.0807,-2.0811,-2.0804,-2.0808,-2.08,-2.0815,-2.0813,-2.0804,-2.0807,-2.079,-2.081,-2.0799,-2.0798,-2.0798,-2.0752,-2.0743,-2.071,-2.0769,-2.0768,-2.0767,0,-2.0799,-2.0796,-2.0773,-2.0777,-2.0773,-2.0763,-2.0759,-2.0753,-2.0753,-2.0756,-2.0754,-2.0764,-2.0751,-2.0769,-2.0752,-2.0766,-2.0762,-2.0763,-2.0762,-2.0761,-2.078,-2.0749,-2.0699,-2.0694,-2.0761,-2.0761,-2.0762,0,-2.0761,-2.0752,-2.0737,-2.0736,-2.074,-2.0732,-2.0734,-2.0735,-2.0731,-2.0728,-2.0725,-2.072,-2.0717,-2.0713,-2.0721,-2.0734,-2.0703,-2.0722,-2.0705,-2.0705,-2.0697,-2.0697,-2.0645,-2.0696,-2.0696,-2.0696,-2.0696,0,-2.0721,-2.0706,-2.072,-2.0711,-2.0694,-2.0707,-2.069,-2.0693,-2.0694,-2.0686,-2.07,-2.0691,-2.0703,-2.0696,-2.0702,-2.0687,-2.0685,-2.0688,-2.0689,-2.0686,-2.0686,-2.0683,-2.0685,-2.0695,-2.0695,-2.0695,-2.0695,0,-2.0676,-2.0685,-2.0669,-2.0675,-2.0676,-2.0664,-2.0669,-2.066,-2.0666,-2.0654,-2.0652,-2.0661,-2.0653,-2.0661,-2.0653,-2.0658,-2.0637,-2.0643,-2.0637,-2.0638,-2.0621,-2.0623,-2.0565,-2.0558,-2.0614,-2.0613,-2.0613,0,-2.0649,-2.0638,-2.0643,-2.0638,-2.0639,-2.0631,-2.0628,-2.064,-2.0636,-2.0635,-2.0627,-2.062,-2.0615,-2.0602,-2.0607,-2.0601,-2.0606,-2.0587,-2.0605,-2.0602,-2.0605,-2.0606,-2.0605,-2.0582,-2.0582,-2.0581,-2.0581,0,-2.0599,-2.0605,-2.06,-2.0596,-2.0592,-2.059,-2.0588,-2.0584,-2.0596,-2.0591,-2.0583,-2.058,-2.0572,-2.0565,-2.0562,-2.0562,-2.0573,-2.0575,-2.0571,-2.0567,-2.0564,-2.0565,-2.0626,-2.0576,-2.0576,-2.0577,-2.0577,-2.0577,-2.0562,-2.0553,-2.0556,-2.055,-2.055,-2.0549,-2.0541,-2.0546,-2.054,-2.0536,-2.0543,-2.0534,-2.0535,-2.053,-2.053,-2.0523,-2.0531,-2.0525,-2.0523,-2.0521,-2.0519,-2.0566,-2.0522,-2.0522,-2.0522,-2.0523,-2.0523,0,-2.0513,-2.0516,-2.0511,-2.0509,-2.0504,-2.0516,-2.0515,-2.051,-2.0502,-2.0502,-2.0498,-2.0489,-2.0483,-2.0488,-2.0483,-2.0476,-2.048,-2.0474,-2.0474,-2.0474,-2.0512,-2.0516,-2.047,-2.047,-2.047,-2.047,-2.047,-2.047,-2.0487,-2.0473,-2.0479,-2.0465,-2.0468,-2.0459,-2.0458,-2.0457,-2.0457,-2.0447,-2.0442,-2.0446,-2.0448,-2.0443,-2.0438,-2.0439,-2.0436,-2.0428,-2.0431,-2.0466,-2.0471,-2.0476,-2.048,-2.0427,-2.0427,-2.0394,-2.0393,-2.0393]},{"header":{"parameterUnit":"m.s-1","parameterCategory":1,"la1":30.2991,"la2":30.254,"lo1":-89.0895,"lo2":-89.0444,"dy":0.0017,"dx":0.0017,"nx":28,"ny":28,"refTime":"2024-10-09T03:00:00:Z","depth":0,"parameterNumber":3,"parameterNumberName":"V-component_of_WINDS"},"data":[0,0,0,0,0,0,0,0,0,0,0,0,0,0,0,0,0,0,0,0,0,0,0,0,0,0,0,0,0,0,0,0,0,0,0,0,0,0,0,0,0,0,0,0,0,0,0,0,0,0,0,0,0,0,0,0,0,0,-3.483,-3.4831,0,-3.489,-3.4891,-3.4892,-3.4872,-3.4871,-3.4869,-3.4868,-3.4926,-3.4929,-3.4932,0,0,0,0,0,0,0,0,0,0,0,0,0,-3.4696,-3.4698,-3.483,-3.4831,-3.4831,-3.489,-3.4891,-3.4892,-3.4872,-3.487,-3.4869,-3.4867,-3.4926,-3.4929,-3.4932,0,0,0,0,0,0,0,0,0,0,0,0,0,-3.4755,-3.4699,-3.483,-3.4829,-3.4829,-3.489,-3.4891,-3.4892,-3.4872,-3.487,-3.4868,-3.4867,-3.4924,-3.4928,-3.4933,-3.4997,0,0,-3.4945,-3.4947,0,0,0,0,0,0,0,0,-3.4751,-3.476,-3.4828,-3.4829,-3.483,-3.4872,-3.4865,-3.4927,-3.4873,-3.4856,-3.4868,-3.4866,-3.491,-3.4915,-3.493,-3.5,-3.5002,-3.4946,-3.4948,-3.495,-3.4951,0,0,0,0,0,0,0,-3.4747,-3.4757,-3.4854,-3.4829,-3.483,-3.4825,-3.4831,-3.4877,-3.4893,-3.4857,-3.4856,-3.4864,-3.491,-3.4926,-3.4931,-3.5003,-3.4945,-3.4949,-3.4952,-3.4953,-3.5132,-3.5134,0,0,0,0,0,0,-3.4743,-3.4754,-3.4852,-3.4856,-3.4785,-3.4829,-3.4836,-3.486,-3.4892,-3.4895,-3.4865,-3.4862,-3.492,-3.4927,-3.4933,-3.5014,-3.495,-3.4954,-3.4956,-3.513,-3.5132,-3.5135,0,0,0,0,0,0,-3.474,-3.4752,-3.4849,-3.4804,-3.4816,-3.4833,-3.4861,-3.4862,-3.4879,-3.4898,-3.4901,-3.488,-3.4919,-3.4928,-3.4982,-3.5016,-3.4956,-3.4959,-3.5127,-3.513,-3.5134,-3.5174,0,0,0,0,0,0,-3.4736,-3.4751,-3.4776,-3.4805,-3.4819,-3.4898,-3.4863,-3.4865,-3.4887,-3.4884,-3.4913,-3.4915,-3.4918,-3.4976,-3.4987,-3.502,-3.4963,-3.5124,-3.5129,-3.5133,-3.517,-3.5179,-3.5186,0,0,0,0,0,-3.4732,-3.4784,-3.4778,-3.4789,-3.4851,-3.49,-3.4908,-3.4911,-3.4889,-3.4915,-3.4928,-3.4914,-3.501,-3.4982,-3.4993,-3.5029,-3.5122,-3.5127,-3.5132,-3.5166,-3.5177,-3.5186,0,0,0,0,0,0,-3.4756,-3.4787,-3.4781,-3.4844,-3.487,-3.4897,-3.4929,-3.4921,-3.4953,-3.4948,-3.495,-3.4956,-3.5014,-3.5026,-3.4995,-3.5095,-3.5063,-3.507,-3.5085,-3.5095,-3.5103,-3.51,-3.4966,0,0,0,0,0,-3.4769,-3.4808,-3.4832,-3.4885,-3.4899,-3.4912,-3.4933,-3.4934,-3.496,-3.497,-3.4987,-3.5012,-3.5048,-3.5072,-3.5105,-3.5171,-3.5178,-3.5201,-3.5209,-3.5215,-3.5223,-3.5261,-3.5273,-3.5152,-3.5151,-3.5151,0,0,-3.4796,-3.4818,-3.4842,-3.4891,-3.4911,-3.4951,-3.4921,-3.4963,-3.4993,-3.4976,-3.5031,-3.5043,-3.5072,-3.5133,-3.5161,-3.5145,-3.5258,-3.5222,-3.5227,-3.5231,-3.5268,-3.5279,-3.5289,-3.5155,-3.5154,-3.5154,0,0,-3.4866,-3.4885,-3.4934,-3.4955,-3.4987,-3.4995,-3.5007,-3.5035,-3.5044,-3.5099,-3.5088,-3.5122,-3.5183,-3.5205,-3.5224,-3.5305,-3.5295,-3.5315,-3.5358,-3.5396,-3.5405,-3.5414,-3.5446,-3.5457,-3.5322,-3.5322,-3.5322,0,-3.4896,-3.4956,-3.4959,-3.5004,-3.5027,-3.5015,-3.5065,-3.5084,-3.5125,-3.5141,-3.5123,-3.5202,-3.5219,-3.5288,-3.5308,-3.5322,-3.5337,-3.5313,-3.5404,-3.5412,-3.542,-3.5451,-3.5462,-3.5325,-3.5324,-3.5324,-3.5324,0,-3.4992,-3.5035,-3.5069,-3.5112,-3.5138,-3.5185,-3.5195,-3.5221,-3.5219,-3.5229,-3.5286,-3.5307,-3.5347,-3.5362,-3.536,-3.5431,-3.5421,-3.5403,-3.5372,-3.5435,-3.5463,-3.5475,-3.5328,-3.5328,-3.5327,-3.5326,0,0,-3.508,-3.5125,-3.5138,-3.5159,-3.5193,-3.5226,-3.5272,-3.5313,-3.5337,-3.5364,-3.5405,-3.5458,-3.5443,-3.5464,-3.5464,-3.5497,-3.5563,-3.5476,-3.5476,-3.5494,-3.5646,-3.5662,-3.5675,-3.5556,-3.5558,-3.556,-3.5645,0,-3.5156,-3.524,-3.5245,-3.5321,-3.5361,-3.5351,-3.5392,-3.5417,-3.5428,-3.5464,-3.5475,-3.5514,-3.549,-3.5503,-3.5535,-3.5549,-3.5595,-3.5542,-3.5595,-3.5597,-3.5592,-3.569,-3.5706,-3.5785,-3.5656,-3.5658,-3.5659,0,-3.5256,-3.529,-3.5371,-3.5403,-3.542,-3.5457,-3.5496,-3.553,-3.5559,-3.5564,-3.559,-3.5586,-3.5634,-3.5599,-3.5666,-3.5631,-3.5652,-3.5662,-3.5665,-3.5673,-3.5634,-3.5703,-3.581,-3.5824,-3.5676,-3.5675,-3.5674,0,-3.5316,-3.5382,-3.544,-3.5457,-3.5495,-3.5522,-3.5538,-3.5566,-3.5591,-3.5624,-3.5641,-3.5678,-3.5699,-3.5728,-3.5735,-3.5708,-3.5803,-3.5768,-3.581,-3.5811,-3.5833,-3.5832,-3.5949,-3.5842,-3.5841,-3.5841,-3.5841,0,-3.5402,-3.5453,-3.5469,-3.5505,-3.5562,-3.5566,-3.5622,-3.5636,-3.5661,-3.57,-3.5691,-3.5728,-3.5732,-3.577,-3.5774,-3.5831,-3.584,-3.5847,-3.5848,-3.585,-3.5849,-3.5866,-3.5862,-3.5844,-3.5844,-3.5843,-3.5842,0,-3.5481,-3.5493,-3.5556,-3.5587,-3.5596,-3.5637,-3.5664,-3.5699,-3.5709,-3.5758,-3.577,-3.5786,-3.583,-3.5839,-3.5889,-3.5893,-3.5962,-3.5955,-3.5953,-3.5953,-3.5997,-3.5994,-3.6131,-3.6151,-3.6027,-3.6029,-3.6029,0,-3.5536,-3.5576,-3.5612,-3.5639,-3.5658,-3.5699,-3.5726,-3.5731,-3.5759,-3.5797,-3.5827,-3.587,-3.5906,-3.5977,-3.5993,-3.6032,-3.6029,-3.6074,-3.6035,-3.6037,-3.6034,-3.6033,-3.6039,-3.6083,-3.6084,-3.6085,-3.6086,0,-3.5635,-3.564,-3.5679,-3.5721,-3.5753,-3.5786,-3.5817,-3.5839,-3.5848,-3.588,-3.5926,-3.5954,-3.6008,-3.6052,-3.6092,-3.6108,-3.61,-3.6098,-3.6111,-3.6115,-3.6113,-3.6118,-3.5977,-3.6096,-3.6095,-3.6094,-3.6093,-3.6093,-3.5706,-3.5742,-3.5775,-3.5819,-3.5844,-3.5874,-3.5909,-3.5925,-3.5964,-3.601,-3.601,-3.6061,-3.6091,-3.6144,-3.6163,-3.6203,-3.6189,-3.6206,-3.6211,-3.6217,-3.6223,-3.6104,-3.621,-3.621,-3.6209,-3.6209,-3.6209,0,-3.5808,-3.5829,-3.587,-3.5915,-3.5951,-3.594,-3.5974,-3.6005,-3.6051,-3.6079,-3.6115,-3.617,-3.6213,-3.6233,-3.6275,-3.6304,-3.6301,-3.6315,-3.6315,-3.6319,-3.6231,-3.6218,-3.6317,-3.6317,-3.6317,-3.6317,-3.6317,-3.6317,-3.5865,-3.5927,-3.5936,-3.601,-3.6029,-3.6082,-3.6103,-3.613,-3.6154,-3.6216,-3.6253,-3.6266,-3.6292,-3.6336,-3.6376,-3.6381,-3.6398,-3.6415,-3.6418,-3.6336,-3.6325,-3.6315,-3.6302,-3.6418,-3.6418,-3.6503,-3.6504,-3.6505]}]]